Regional Weather Roundup
Issued by NWS Little Rock, AR

Home | Current Version | Previous Version | Graphics & Text | Print | Product List | Glossary On
Versions: 1 2 3 4 5 6 7 8 9 10 11 12 13 14 15 16 17 18 19 20 21 22 23 24 25 26 27 28 29 30 31 32 33 34 35 36 37 38 39 40 41 42 43 44 45 46 47 48 49 50
000
ASUS44 KLZK 270105
RWRLZK

WEATHER ROUNDUP FOR ARKANSAS
NATIONAL WEATHER SERVICE LITTLE ROCK AR
700 PM CST MON JAN 26 2015

NOTE: "FAIR" INDICATES FEW OR NO CLOUDS BELOW 12,000 FEET WITH NO
SIGNIFICANT WEATHER AND/OR OBSTRUCTIONS TO VISIBILITY.

ARZ001-003-010-029-270200-
NORTHWEST ARKANSAS

CITY           SKY/WX    TMP DP  RH WIND       PRES   REMARKS
FAYETTEVILLE   CLEAR     42  33  70 S3        30.02R
FORT SMITH     CLEAR     52  35  52 CALM      30.01R
HARRISON       CLEAR     52  34  50 W10G18    29.97R
BENTONVILLE    CLEAR     50  32  50 SW5       30.01F
ROGERS         CLEAR     51  34  52 SW6       30.01R
SILOAM SPGS    CLEAR     50  30  46 SW5       30.02F
HIGHFILL       CLEAR     50  33  52 SW5       30.00S
SPRINGDALE     CLEAR     52  34  50 W6        30.03R
$$

ARZ004-005-016-270200-
NORTH CENTRAL ARKANSAS

CITY           SKY/WX    TMP DP  RH WIND       PRES   REMARKS
BATESVILLE     CLEAR     52  30  43 W7        29.95R
FLIPPIN        CLEAR     54  32  43 W8        29.97R
MTN HOME       CLEAR     53  33  46 NW3       29.96R
$$

ARZ040-041-270200-
WEST CENTRAL ARKANSAS

CITY           SKY/WX    TMP DP  RH WIND       PRES   REMARKS
MENA           CLEAR     59  37  44 W7        30.02S
MOUNT IDA      CLEAR     53  35  50 CALM      29.98R
$$

ARZ009-017-025-026-028-270200-
NORTHEAST ARKANSAS

CITY           SKY/WX    TMP DP  RH WIND       PRES   REMARKS
CORNING        FAIR      43  36  75 MISG      29.93S
JONESBORO      CLEAR     42  35  76 CALM      29.94R
NEWPORT        CLEAR     45  35  67 SW5       29.96R
WALNUT RIDGE   CLEAR     41  34  75 S6        29.93R
BLYTHEVILLE    CLEAR     41  34  76 S6        29.95S
$$

ARZ022-023-033-042-044-270200-
CENTRAL ARKANSAS

CITY           SKY/WX    TMP DP  RH WIND       PRES   REMARKS
LITTLE ROCK    CLEAR     54  31  41 SW6       29.99R
N LITTLE ROCK  CLEAR     52  36  55 W6        29.99R
JACKSONVILLE   CLEAR     43  33  68 W7        29.97R
SEARCY         CLEAR     47  33  58 SW6       29.98R
HOT SPRINGS    CLEAR     56  35  45 W7        30.00R
RUSSELLVILLE   CLEAR     49  34  56 W5        29.99R
CLINTON        FAIR      48  32  53 W3        29.99R
$$

ARZ036-270200-
EAST ARKANSAS

CITY           SKY/WX    TMP DP  RH WIND       PRES   REMARKS
WEST MEMPHIS   CLEAR     45  35  68 SW5       29.95S
$$

ARZ050-053-066-070-073-270200-
SOUTHWEST ARKANSAS

CITY           SKY/WX    TMP DP  RH WIND       PRES   REMARKS
ARKADELPHIA    FAIR      51  38  61 SW6       30.02R
CAMDEN         CLEAR     54  32  43 MISG      30.03S
TEXARKANA      CLEAR     54  35  48 S6        30.05R
EL DORADO      CLEAR     46  37  71 CALM      30.03F
DE QUEEN       CLEAR     48  38  68 CALM      30.02R
$$

ARZ056-057-069-270200-
SOUTHEAST ARKANSAS

CITY           SKY/WX    TMP DP  RH WIND       PRES   REMARKS
PINE BLUFF     CLEAR     49  34  56 SW6       30.00R
STUTTGART      CLEAR     46  36  66 SW9       30.00R
MONTICELLO     CLEAR     52  33  48 SW6       30.01R

$$





USA.gov is the U.S. government's official web portal to all federal, state and local government web resources and services.